Notices

What's New in latest Release from April 7th, 2021:

- Updated Glossary, including Speed of Maximum Gust, and Total Hourly Precipitation

- Updated national and regional climate services offices contacts and prices information

- Addition of station inventory lists for 1981-2010, 1971-2000, and 1961-1990 Normals.

If you haven't already, please take our survey and provide feedback about our website: https://eccc.sondage-survey.ca/f/LanguageSelection.aspx?s=442ca660-fcf1-47c0-95a9-59707d6fd709

Hourly Data Report for July 20, 2003

TORONTO CITY
ONTARIO

43°40'00.000" N
79°24'00.000" W
112.50 m
6158355
71508
XTO

Download Data

Hourly Data (July 2003)
Hourly Data Report for July 20, 2003
TIME
LST
Temp Definition
°C
Dew Point Definition
°C
Rel Hum Definition
%
Precip. Amount Definition
mm

Wind Dir Definition
10's deg

Wind Spd Definition
km/h
Visibility Definition
km
Stn Press Definition
kPa
Hmdx Definition


Wind Chill Definition


Weather Definition


00:00 18.9 9.8 55   LegendMM LegendMM LegendMM 100.12     LegendNANA
01:00 18.6 9.9 57   LegendMM LegendMM LegendMM 100.12     LegendNANA
02:00 17.6 10.1 61   LegendMM LegendMM LegendMM 100.06     LegendNANA
03:00 17.3 10.4 64   LegendMM LegendMM LegendMM 100.07     LegendNANA
04:00 16.0 10.7 71   LegendMM LegendMM LegendMM 100.02     LegendNANA
05:00 15.9 11.5 75   LegendMM LegendMM LegendMM 100.01     LegendNANA
06:00 17.1 13.3 78   LegendMM LegendMM LegendMM 100.06     LegendNANA
07:00 18.3 13.0 71   LegendMM LegendMM LegendMM 100.04     LegendNANA
08:00 20.3 13.6 65   LegendMM LegendMM LegendMM 100.02     LegendNANA
09:00 20.9 13.6 63   LegendMM LegendMM LegendMM 99.97     LegendNANA
10:00 20.1 14.3 69   LegendMM LegendMM LegendMM 99.97     LegendNANA
11:00 20.3 15.7 75   LegendMM LegendMM LegendMM 99.99 25   LegendNANA
12:00 20.3 16.6 79   LegendMM LegendMM LegendMM 99.98 25   LegendNANA
13:00 21.1 15.8 72   LegendMM LegendMM LegendMM 99.91 26   LegendNANA
14:00 19.0 17.7 92   LegendMM LegendMM LegendMM 99.94     LegendNANA
15:00 19.8 16.7 82   LegendMM LegendMM LegendMM 99.83     LegendNANA
16:00 20.5 16.0 75   LegendMM LegendMM LegendMM 99.78 25   LegendNANA
17:00 20.2 16.2 78   LegendMM LegendMM LegendMM 99.73 25   LegendNANA
18:00 19.5 15.2 76   LegendMM LegendMM LegendMM 99.70     LegendNANA
19:00 19.3 15.2 77   LegendMM LegendMM LegendMM 99.64     LegendNANA
20:00 18.8 15.5 81   LegendMM LegendMM LegendMM 99.55     LegendNANA
21:00 19.9 15.4 75   LegendMM LegendMM LegendMM 99.47     LegendNANA
22:00 17.8 15.9 89   LegendMM LegendMM LegendMM 99.41     LegendNANA
23:00 17.2 15.6 90   LegendMM LegendMM LegendMM 99.34     LegendNANA

Notes on Data Quality.

Legend

  • E = Estimated
  • M = Missing
  • NA = Not Available*
  • [empty] = Indicates an unobserved value
Date modified: